Weather History for Yankton, SD

Change the Weather History Date:

Tuesday, April 29, 2014

  Actual Average Record
Temperature  
Mean Temperature 40 °F -  
Max Temperature 44 °F 67 °F 89 °F (1987)
Min Temperature 35 °F 39 °F 23 °F (1958)
Degree Days  
Heating Degree Days 26    
Moisture  
Dew Point 38 °F    
Average Humidity 89    
Maximum Humidity 100    
Minimum Humidity 76    
Precipitation  
Precipitation 0.44 in - - ()
Sea Level Pressure  
Sea Level Pressure 29.75 in    
Wind  
Wind Speed 16 mph (North)    
Max Wind Speed 23 mph    
Max Gust Speed 30 mph    
Visibility 8 miles    
Events      
Averages and records for this station are not official NWS values.
T = Trace of Precipitation, MM = Missing Value Source: NWS Daily Summary

Daily Weather History Graph

Daily Weather History Graph

Search for Another Location

Airport:

Trip Planner

Search our weather history database for the weather conditions in past years. The results will help you decide how hot, cold, wet, or windy it might be!

Date:

Astronomy

Apr. 29, 2014 Rise Set
Actual Time 6:26 AM CDT 8:28 PM CDT
Civil Twilight 5:55 AM CDT 8:59 PM CDT
Nautical Twilight 5:17 AM CDT 9:36 PM CDT
Astronomical Twilight 4:36 AM CDT 10:18 PM CDT
Moon 6:45 AM CDT (4/29) 9:10 PM CDT (4/29)
Length of Visible Light 15h 03m
Length of Day
14h 01m
New Moon, 0% of the Moon is Illuminated
Apr 29
New Moon
May 6
First Quarter
May 14
Full
May 21
Last Quarter
May 28
New

Hourly Weather History & Observations

Time (CDT) Temp. Windchill Dew Point Humidity Pressure Visibility Wind Dir Wind Speed Gust Speed Precip Events Conditions
12:15 AM 44.6 °F 38.4 °F 42.8 °F 93% 29.56 in 9.0 mi NNE 12.7 mph - 0.01 in   Unknown
12:35 AM 44.6 °F 37.4 °F 42.8 °F 93% 29.56 in 8.0 mi North 16.1 mph 19.6 mph 0.01 in   Unknown
12:55 AM 44.6 °F 38.4 °F 42.8 °F 93% 29.57 in 7.0 mi North 12.7 mph - 0.01 in   Unknown
1:15 AM 44.6 °F 38.4 °F 42.8 °F 93% 29.58 in 7.0 mi North 12.7 mph 18.4 mph N/A   Unknown
1:35 AM 42.8 °F 34.3 °F 42.8 °F 100% 29.58 in 2.5 mi North 19.6 mph - N/A   Unknown
1:55 AM 42.8 °F 35.8 °F 41.0 °F 93% 29.59 in 2.5 mi North 13.8 mph - 0.01 in   Unknown
2:15 AM 42.8 °F 36.2 °F 42.8 °F 100% 29.59 in 2.0 mi North 12.7 mph 20.7 mph 0.02 in   Unknown
2:35 AM 42.8 °F 34.8 °F 41.0 °F 93% 29.59 in 2.0 mi North 17.3 mph - 0.02 in   Unknown
2:55 AM 42.8 °F 35.4 °F 41.0 °F 93% 29.59 in 2.0 mi North 15.0 mph - 0.03 in   Unknown
3:15 AM 42.8 °F 34.8 °F 41.0 °F 93% 29.60 in 2.0 mi NNW 17.3 mph - N/A   Unknown
3:35 AM 42.8 °F 35.8 °F 41.0 °F 93% 29.60 in 2.5 mi North 13.8 mph - N/A   Unknown
3:55 AM 42.8 °F 34.8 °F 41.0 °F 93% 29.60 in 3.0 mi North 17.3 mph - N/A   Unknown
4:15 AM 42.8 °F 34.8 °F 39.2 °F 87% 29.61 in 10.0 mi NNW 17.3 mph 21.9 mph 0.02 in   Unknown
4:35 AM 41.0 °F 33.1 °F 39.2 °F 93% 29.61 in 10.0 mi North 15.0 mph 23.0 mph 0.04 in   Unknown
4:55 AM 41.0 °F 33.1 °F 39.2 °F 93% 29.61 in 10.0 mi North 15.0 mph 24.2 mph 0.05 in   Unknown
5:15 AM 41.0 °F 32.5 °F 39.2 °F 93% 29.62 in 9.0 mi North 17.3 mph - 0.01 in   Unknown
5:35 AM 39.2 °F 29.6 °F 37.4 °F 93% 29.63 in 8.0 mi North 19.6 mph 25.3 mph 0.04 in   Unknown
5:55 AM 39.2 °F 29.6 °F 37.4 °F 93% 29.63 in 8.0 mi North 19.6 mph - 0.07 in   Unknown
6:15 AM 39.2 °F 29.3 °F 37.4 °F 93% 29.65 in 5.0 mi North 20.7 mph 27.6 mph 0.01 in   Unknown
6:35 AM 39.2 °F 30.8 °F 35.6 °F 87% 29.65 in 8.0 mi North 15.0 mph 28.8 mph 0.02 in   Unknown
6:55 AM 39.2 °F 29.0 °F 35.6 °F 87% 29.67 in 8.0 mi North 21.9 mph 27.6 mph 0.04 in   Unknown
7:15 AM 37.4 °F 27.2 °F 35.6 °F 93% 29.68 in 4.0 mi North 19.6 mph 28.8 mph 0.02 in   Unknown
7:35 AM 37.4 °F 26.9 °F 35.6 °F 93% 29.68 in 4.0 mi NNW 20.7 mph 25.3 mph 0.05 in   Unknown
7:55 AM 35.6 °F 24.8 °F 33.8 °F 93% 29.69 in 4.0 mi North 19.6 mph 27.6 mph 0.08 in   Unknown
8:15 AM 35.6 °F 25.9 °F 33.8 °F 93% 29.69 in 5.0 mi NNW 16.1 mph 23.0 mph 0.02 in   Unknown
8:35 AM 35.6 °F 25.5 °F 35.6 °F 100% 29.70 in 5.0 mi NNW 17.3 mph 23.0 mph 0.03 in   Unknown
8:55 AM 37.4 °F 28.2 °F 35.6 °F 93% 29.70 in 5.0 mi NNW 16.1 mph - 0.05 in   Unknown
9:15 AM 37.4 °F 27.5 °F 35.6 °F 93% 29.71 in 8.0 mi NNW 18.4 mph 24.2 mph 0.01 in   Unknown
9:35 AM 37.4 °F 27.2 °F 35.6 °F 93% 29.71 in 7.0 mi NNW 19.6 mph 24.2 mph 0.02 in   Unknown
9:55 AM 37.4 °F 27.2 °F 35.6 °F 93% 29.72 in 6.0 mi North 19.6 mph 25.3 mph 0.04 in   Unknown
10:15 AM 37.4 °F 28.2 °F 35.6 °F 93% 29.72 in 5.0 mi North 16.1 mph 21.9 mph 0.02 in   Unknown
10:35 AM 37.4 °F 27.8 °F 35.6 °F 93% 29.73 in 5.0 mi North 17.3 mph 24.2 mph 0.03 in   Unknown
10:55 AM 37.4 °F 27.8 °F 35.6 °F 93% 29.73 in 7.0 mi North 17.3 mph 24.2 mph 0.04 in   Unknown
11:15 AM 39.2 °F 30.8 °F 37.4 °F 93% 29.74 in 5.0 mi North 15.0 mph 26.5 mph N/A   Unknown
11:35 AM 39.2 °F 29.0 °F 37.4 °F 93% 29.74 in 8.0 mi North 21.9 mph - 0.01 in   Unknown
11:55 AM 39.2 °F 29.8 °F 37.4 °F 93% 29.74 in 7.0 mi NNW 18.4 mph - 0.01 in   Unknown
12:15 PM 39.2 °F 29.6 °F 37.4 °F 93% 29.75 in 9.0 mi North 19.6 mph 24.2 mph N/A   Unknown
12:35 PM 39.2 °F 30.8 °F 37.4 °F 93% 29.75 in 9.0 mi North 15.0 mph 24.2 mph N/A   Unknown
12:55 PM 39.2 °F 28.7 °F 35.6 °F 87% 29.76 in 10.0 mi North 23.0 mph 29.9 mph N/A   Unknown
1:15 PM 39.2 °F 29.8 °F 37.4 °F 93% 29.76 in 10.0 mi North 18.4 mph 25.3 mph N/A   Unknown
1:35 PM 39.2 °F 29.8 °F 35.6 °F 87% 29.76 in 9.0 mi North 18.4 mph 26.5 mph N/A   Unknown
1:55 PM 39.2 °F 30.2 °F 37.4 °F 93% 29.76 in 10.0 mi North 17.3 mph 24.2 mph N/A   Unknown
2:15 PM 39.2 °F 29.0 °F 35.6 °F 87% 29.78 in 10.0 mi North 21.9 mph 29.9 mph N/A   Unknown
2:35 PM 41.0 °F 31.9 °F 35.6 °F 81% 29.78 in 10.0 mi North 19.6 mph 27.6 mph N/A   Unknown
2:55 PM 41.0 °F 31.4 °F 35.6 °F 81% 29.79 in 10.0 mi North 21.9 mph 28.8 mph N/A   Unknown
3:15 PM 41.0 °F 31.4 °F 35.6 °F 81% 29.80 in 10.0 mi North 21.9 mph 28.8 mph N/A   Unknown
3:35 PM 41.0 °F 33.5 °F 35.6 °F 81% 29.81 in 10.0 mi North 13.8 mph 20.7 mph N/A   Unknown
4:15 PM 42.8 °F 34.0 °F 35.6 °F 76% 29.81 in 10.0 mi North 20.7 mph - N/A   Unknown
4:35 PM 42.8 °F 36.2 °F 37.4 °F 81% 29.81 in 10.0 mi North 12.7 mph 21.9 mph N/A   Unknown
4:55 PM 42.8 °F 34.8 °F 37.4 °F 81% 29.82 in 9.0 mi North 17.3 mph 21.9 mph N/A   Unknown
5:15 PM 42.8 °F 35.4 °F 37.4 °F 81% 29.83 in 10.0 mi NNW 15.0 mph - N/A   Unknown
5:35 PM 42.8 °F 35.8 °F 39.2 °F 87% 29.84 in 10.0 mi NNW 13.8 mph - N/A   Unknown
5:55 PM 44.6 °F 38.4 °F 39.2 °F 81% 29.85 in 10.0 mi North 12.7 mph 18.4 mph N/A   Unknown
6:15 PM 44.6 °F 39.2 °F 39.2 °F 81% 29.85 in 10.0 mi North 10.4 mph - N/A   Unknown
6:35 PM 42.8 °F 35.8 °F 39.2 °F 87% 29.87 in 8.0 mi North 13.8 mph - N/A   Unknown
6:55 PM 42.8 °F 36.2 °F 39.2 °F 87% 29.87 in 10.0 mi North 12.7 mph - N/A   Unknown
7:15 PM 42.8 °F 36.6 °F 39.2 °F 87% 29.88 in 10.0 mi North 11.5 mph - N/A   Unknown
7:35 PM 42.8 °F 36.2 °F 39.2 °F 87% 29.89 in 10.0 mi North 12.7 mph - N/A   Unknown
7:55 PM 42.8 °F 37.5 °F 39.2 °F 87% 29.89 in 10.0 mi North 9.2 mph - N/A   Unknown
8:15 PM 44.6 °F 38.4 °F 39.2 °F 81% 29.90 in 10.0 mi North 12.7 mph - N/A   Unknown
8:35 PM 42.8 °F 37.0 °F 39.2 °F 87% 29.90 in 10.0 mi North 10.4 mph 16.1 mph N/A   Unknown
8:55 PM 42.8 °F 37.0 °F 39.2 °F 87% 29.91 in 10.0 mi North 10.4 mph - N/A   Unknown
9:15 PM 42.8 °F 36.6 °F 39.2 °F 87% 29.91 in 9.0 mi North 11.5 mph - N/A   Unknown
9:35 PM 42.8 °F 35.8 °F 39.2 °F 87% 29.92 in 9.0 mi North 13.8 mph - N/A   Unknown
9:55 PM 42.8 °F 37.0 °F 39.2 °F 87% 29.92 in 10.0 mi North 10.4 mph - N/A   Unknown
10:15 PM 42.8 °F 37.0 °F 37.4 °F 81% 29.93 in 10.0 mi North 10.4 mph - N/A   Unknown
10:35 PM 42.8 °F 37.0 °F 37.4 °F 81% 29.93 in 10.0 mi North 10.4 mph - N/A   Unknown
10:55 PM 42.8 °F 37.5 °F 39.2 °F 87% 29.92 in 10.0 mi NNW 9.2 mph - N/A   Unknown
11:15 PM 42.8 °F 38.0 °F 39.2 °F 87% 29.93 in 10.0 mi NW 8.1 mph - N/A   Unknown
11:35 PM 42.8 °F 36.6 °F 39.2 °F 87% 29.93 in 10.0 mi NW 11.5 mph - N/A   Unknown
11:55 PM 42.8 °F 36.6 °F 39.2 °F 87% 29.92 in 10.0 mi NW 11.5 mph - 0.01 in   Unknown